www.pogodaiklimat.ru

Погода и климат >> Архив погоды >> Венгрия >> Eger


ПОГОДА в Eger

  • Прогноз погоды в Eger
  • Монитор погоды в Eger
  • Климат города

АРХИВ ПОГОДЫ в Eger

Время (UTC), дата Ветер
(напр.,м/с)
 
Видим.   Явления Облачность Т
(С)
Тd
(С)
f
(%)
Тe
(С)
Тes
(С)
Комфортность P
(гПа)
Po
(гПа)
Тmin
(С)
Tmax
(С)
R
(мм)
R24
(мм)
S
(см)
07 11.08 Ю 2 н/о н/о +24.6 +17.1 63 +28 +28 душно 1020.2 994.1
08 11.08 ЮЗ 2
{7}
н/о н/о +25.6 +16.7 58 +29 +29 душно 1019.8 993.8
09 11.08 Ю 3 30 км 9/4 1300 м
[Cu med, cong Cs]
+25.8 +15.2 52 +29 +34 душно 1019.9 993.9
10 11.08 З 4
{7}
н/о н/о +25.3 +17.5 62 +29 +29 душно 1020.1 994.0
11 11.08 З 2 30 км 9/5 1500 м
[Sc Cs]
+26.7 +16.9 55 +30 +37 душно 1019.6 993.7
12 11.08 СЗ 2 30 км 10/10 900 м
[Cu Sc]
+25.0 +17.2 62 +29 +29 душно 1019.6 993.5
13 11.08 СЗ 2 30 км слабый дождь 9/9 600 м
[Cu Sc]
+23.9 +18.5 72 +28 +30 душно 1019.7 993.5
14 11.08 СЗ 1 н/о н/о +25.4 +17.6 62 +30 +30 душно 1019.0 993.0
15 11.08 З 1 30 км {дождь} 9/5 1200 м
[Cu Sc Cs]
+25.8 +15.8 54 +29 +31 душно 1018.7 992.7
16 11.08 ЮЗ 1 н/о н/о +26.3 +16.0 53 +30 +30 душно 1018.2 992.3
17 11.08 З 1 н/о н/о +25.9 +16.2 55 +29 +29 душно 1018.1 992.1
18 11.08 ЮЗ 2 30 км {дождь} 6/6 1000 м
[Sc diur, vesp]
+25.3 +15.9 56 +29 +29 душно 1018.2 992.2
19 11.08 С 1 н/о н/о +22.8 +16.8 69 +28 +28 душно 1018.8 992.5
20 11.08 СЗ 2 н/о н/о +22.3 +16.6 70 +27 +27 душно 1019.3 993.0
21 11.08 С 2 н/о н/о +21.8 +16.1 70 +26 +26 душно 1019.5 993.1
22 11.08 С 3 н/о н/о +21.3 +16.1 72 +25 +25 комфорт 1019.4 993.0
23 11.08 С 2 н/о н/о +20.2 +16.0 77 +24 +24 комфорт 1019.3 992.8
00 12.08 СЗ 2 н/о н/о +19.7 +16.0 79 +22 +22 комфорт 1019.2 992.7
01 12.08 С 2 н/о н/о +18.3 +15.9 86 +19 +19 1019.5 992.8
02 12.08 С 1 н/о н/о +18.8 +15.9 83 +21 +21 комфорт 1019.4 992.8
03 12.08 С 1 25 км 1/0
[Ci sp]
+17.5 +15.5 88 +19 +19 1019.6 992.8
04 12.08 СЗ 2 30 км 1/0
[Ci sp]
+16.5 +15.2 92 +17 +17 1019.9 993.0
05 12.08 С 3 30 км 1/0
[Ci sp]
+18.1 +15.9 87 +18 +20 1019.8 993.1
06 12.08 штиль 0 30 км 5/5 1500 м
[Sc Ci sp]
+19.0 +16.2 84 +20 +23 1020.1 993.5 +16.4 0
07 12.08 Ю 1 н/о н/о +22.7 +16.5 68 +27 +27 душно 1019.7 993.4
08 12.08 СЗ 2 н/о н/о +24.8 +14.6 53 +27 +27 жарко 1019.4 993.3
09 12.08 Ю 2 30 км 3/1 2000 м
[Cu med, cong Ci sp]
+27.2 +9.5 33 +28 +39 жарко 1019.2 993.3
10 12.08 З 2 н/о н/о +27.8 +9.6 32 +28 +28 жарко 1018.9 993.1
11 12.08 СВ 1 30 км 4/4 1500 м
[Cu med, cong]
+26.9 +11.8 39 +28 +39 жарко 1018.7 992.8
12 12.08 З 2 30 км 4/4 2000 м
[Cu med, cong]
+29.1 +10.3 31 +29 +38 жарко 1018.1 992.4
13 12.08 З 2 30 км 4/4 2000 м
[Cu med, cong]
+28.2 +9.5 31 +28 +35 жарко 1017.6 991.8
14 12.08 ЮЗ 3 н/о н/о +29.9 +10.0 29 +30 +30 жарко 1016.9 991.3
15 12.08 З 2 30 км 5/1 2000 м
[Cu med, cong Cs]
+29.7 +10.3 30 +30 +33 жарко 1016.4 990.8
16 12.08 ЮЗ 2 н/о н/о +29.5 +9.1 28 +29 +29 жарко 1015.9 990.3
17 12.08 СЗ 2 н/о н/о +28.5 +9.7 31 +29 +29 жарко 1015.7 990.0
18 12.08 С 1 30 км 4/0
[Ci sp]
+25.5 +11.3 41 +27 +27 жарко 1015.6 989.7 +30.6 0
19 12.08 С 1 н/о н/о +22.3 +12.6 54 +25 +25 комфорт 1016.1 989.9
20 12.08 штиль 0 н/о н/о +21.3 +12.7 58 +24 +24 комфорт 1016.2 989.9
21 12.08 СЗ 1 н/о н/о +19.6 +12.4 63 +22 +22 комфорт 1016.4 989.9
22 12.08 С 1 н/о н/о +18.1 +12.1 68 +19 +19 1016.4 989.8
23 12.08 С 2 н/о н/о +18.1 +12.1 68 +19 +19 1016.0 989.4
00 13.08 С 1 н/о н/о +16.7 +12.0 74 +18 +18 1015.9 989.2
01 13.08 В 1 н/о н/о +17.7 +11.7 68 +19 +19 1015.8 989.2
02 13.08 С 1 н/о н/о +17.8 +11.8 68 +19 +19 1015.4 988.8
03 13.08 С 1 25 км 1/0
[Ci fib]
+16.8 +11.5 71 +18 +18 1015.3 988.6
04 13.08 С 1 30 км ясно +16.8 +11.7 72 +18 +18 1015.1 988.4
05 13.08 штиль 0 30 км ясно +18.9 +12.6 67 +20 +21 1015.0 988.5
06 13.08 Ю 1 30 км ясно +21.1 +13.0 60 +23 +28 комфорт 1014.6 988.3 +16.3 0
07 13.08 ЮВ 2 н/о н/о +24.8 +13.7 50 +27 +27 жарко 1014.4 988.4
08 13.08 Ю 2 н/о н/о +27.2 +13.2 42 +29 +29 жарко 1014.2 988.4
09 13.08 Ю 2 30 км 1/1 1500 м
[Cu hum]
+28.7 +13.4 39 +30 +42 жарко 1014.0 988.4
10 13.08 Ю 4
{7}
н/о н/о +30.0 +13.7 37 +32 +32 жарко 1013.5 988.0
11 13.08 ЮЗ 4
{7}
30 км 4/4 2000 м
[Cu med, cong]
+31.3 +14.5 36 +33 +39 жарко 1013.0 987.6
12 13.08 ЮЗ 2
{7}
30 км 5/5 2000 м
[Cu med, cong]
+31.0 +13.3 34 +32 +39 жарко 1012.4 987.0
13 13.08 ЮЗ 4 30 км 4/4 2000 м
[Cu med, cong]
+31.5 +12.8 32 +32 +37 жарко 1011.7 986.4
14 13.08 ЮЗ 3
{9}
н/о н/о +31.4 +13.2 33 +32 +32 жарко 1011.1 985.8
15 13.08 Ю 4
{10}
30 км 3/3 2000 м
[Cu med, cong]
+30.5 +12.0 32 +31 +33 жарко 1010.8 985.4
16 13.08 Ю 4
{8}
н/о н/о +31.0 +11.9 31 +31 +31 жарко 1010.2 984.9
17 13.08 Ю 3
{7}
н/о н/о +30.0 +11.5 32 +31 +31 жарко 1009.8 984.4
18 13.08 Ю 2 30 км 1/1 2000 м
[Sc diur, vesp Ci sp]
+28.0 +12.0 37 +29 +29 жарко 1009.9 984.3 +32.8
19 13.08 Ю 2 н/о н/о +25.9 +12.4 43 +27 +27 жарко 1010.3 984.5
20 13.08 В 1 н/о н/о +24.1 +12.4 48 +26 +26 жарко 1010.7 984.8
21 13.08 В 2 н/о н/о +24.5 +11.8 45 +26 +26 жарко 1010.6 984.7
22 13.08 ЮВ 2 н/о н/о +23.3 +11.0 46 +26 +26 жарко 1010.9 984.9
23 13.08 СВ 1 н/о н/о +21.9 +11.9 53 +24 +24 комфорт 1011.4 985.3
00 14.08 В 1 н/о н/о +22.2 +11.9 52 +25 +25 комфорт 1011.5 985.4
01 14.08 В 1 н/о н/о +22.2 +12.2 53 +25 +25 комфорт 1011.4 985.3
02 14.08 В 2 н/о н/о +21.6 +12.2 55 +24 +24 комфорт 1011.1 984.9
03 14.08 В 3 25 км 1/1 1080 м
[Cu hum]
+21.1 +12.3 57 +23 +23 комфорт 1011.1 984.9
04 14.08 В 2 30 км ясно +19.3 +12.3 64 +21 +21 комфорт 1011.3 984.9
05 14.08 штиль 0 30 км ясно +20.7 +12.9 61 +23 +24 комфорт 1011.6 985.3
06 14.08 ЮВ 2 30 км 1/1 1200 м
[Cu hum]
+23.0 +12.9 53 +26 +29 жарко 1011.4 985.3 +19.0
07 14.08 ЮВ 3 н/о н/о +24.6 +13.8 51 +27 +27 жарко 1011.4 985.5
08 14.08 Ю 4
{7}
н/о н/о +24.7 +14.5 53 +27 +27 жарко 1012.1 986.2
09 14.08 СВ 1 30 км 5/5 700 м
[Cb cap]
+23.0 +17.0 69 +28 +36 душно 1012.0 985.9
10 14.08 Ю 1 н/о н/о +26.5 +17.6 58 +31 +31 душно 1011.5 985.7
11 14.08 ЮВ 4
{7}
30 км 4/1 1500 м
[Cu hum Cs]
+29.5 +17.0 47 +33 +42 душно 1010.8 985.3
12 14.08 Ю 5
{9}
30 км 4/4 1500 м
[Cu med, cong Ci sp]
+30.4 +17.5 46 +34 +39 очень
душно
1010.3 984.9 1
13 14.08 ЮВ 5
{9}
30 км 5/5 1500 м
[Cu med, cong Ci sp]
+31.3 +15.7 39 +34 +37 душно 1009.6 984.3
14 14.08 Ю 5
{11}
н/о н/о +31.6 +13.8 34 +33 +33 жарко 1009.2 983.9
15 14.08 Ю 5 30 км 3/3 2000 м
[Cu med, cong Ci fib]
+31.1 +12.9 33 +32 +34 жарко 1008.9 983.6
16 14.08 Ю 4
{8}
н/о н/о +29.6 +14.2 39 +32 +32 душно 1008.8 983.4
17 14.08 ЮЗ 1 н/о н/о +28.3 +14.5 43 +31 +31 душно 1009.1 983.6
18 14.08 СЗ 2 30 км 6/4 1200 м
[Cb cap Cs]
+25.6 +15.9 55 +29 +29 душно 1010.1 984.3 +31.9 1
19 14.08 СЗ 4
{13}
н/о н/о +21.3 +16.9 76 +25 +25 комфорт 1012.2 986.0
20 14.08 С 1
{8}
н/о н/о +20.5 +16.5 78 +25 +25 комфорт 1012.9 986.6
21 14.08 СЗ 3 н/о н/о +20.1 +16.1 78 +23 +23 комфорт 1011.5 985.2
22 14.08 С 2 н/о н/о +19.4 +16.1 81 +22 +22 комфорт 1012.1 985.7
23 14.08 СЗ 2 н/о н/о +18.6 +16.0 85 +20 +20 1012.6 986.1
00 15.08 штиль 0 н/о н/о +17.9 +16.1 89 +18 +18 1013.3 986.7 0.2
01 15.08 З 1 н/о н/о +18.0 +16.2 89 +19 +19 1013.6 987.0
02 15.08 В 1 н/о н/о +17.5 +15.8 90 +19 +19 1013.8 987.2
03 15.08 С 2 25 км 8/8 1500 м
[Sc]
+17.9 +15.7 87 +18 +18 1013.0 986.5
04 15.08 СЗ 3 30 км 6/3 600 м
[Cu Sc Ci sp]
+17.1 +15.3 89 +17 +17 1013.2 986.6
05 15.08 С 3 30 км 8/5 600 м
[Cu Sc Cs]
+17.4 +15.4 88 +17 +18 1013.8 987.2
06 15.08 штиль 0 30 км 8/8 600 м
[Cu Sc Ci sp]
+19.9 +16.5 81 +22 +23 комфорт 1013.9 987.5 +17.0 0.2
07 15.08 Ю 1 н/о н/о +22.1 +17.0 73 +27 +27 душно 1014.0 987.8
08 15.08 ЮВ 2 н/о н/о +24.8 +16.8 61 +28 +28 жарко 1014.3 988.3
09 15.08 н/о +20.4 +14.8 70 +34 +34 очень
душно
11 15.08 ЮВ 4 25 км осадки на расстоянии 5/5 1380 м
[Cu med, cong]
+28.4 +16.7 49
12 15.08 С 6
{13}
20 км гроза без осадков 8/8 900 м
[Cb cap]
+20.5 +14.2 67
13 15.08 С 5
{15}
30 км гроза, ливневой дождь 10/10 900 м
[Cb cap]
+17.1 +16.3 95
14 15.08 С 4
{8}
н/о н/о +19.6 +18.1 91 +22 +22 комфорт 1015.8 989.3
15 15.08 С 4
{8}
30 км {гроза} 9/8 400 м
[Sc diur, vesp Ac cuf Ci sp]
+21.3 +18.1 82 +26 +26 душно 1015.5 989.2
17 15.08 ЮВ 1 н/о н/о +22.1 +18.3 79 +27 +27 душно 1015.9 989.7
16 15.08 СВ 1 н/о н/о +21.6 +17.6 78 +26 +26 душно 1015.7 989.4
18 15.08 С 2 30 км {гроза} 9/1 1500 м
[Sc diur, vesp Cs]
+21.1 +16.7 76 +25 +25 комфорт 1016.2 989.9
19 15.08 СЗ 3 н/о н/о +19.6 +16.8 84 +22 +22 комфорт 1017.1 990.6
20 15.08 СЗ 2 н/о н/о +18.4 +16.6 89 +20 +20 1017.5 990.9
21 15.08 В 1 н/о н/о +17.8 +15.8 88 +19 +19 1017.5 990.8
23 15.08 З 2 н/о н/о +18.0 +14.7 81 +19 +19 1017.7 991.0
22 15.08 С 3 н/о н/о +19.5 +14.1 71 +21 +21 комфорт 1017.3 990.8
00 16.08 СЗ 2 н/о н/о +16.6 +14.4 87 +17 +17 1017.8 991.0
01 16.08 СЗ 2 н/о н/о +16.2 +14.2 88 +16 +16 1017.4 990.6
02 16.08 штиль 0 н/о н/о +15.2 +14.1 93 +15 +15 1017.5 990.6
03 16.08 СЗ 2 30 км 1/1 900 м
[Cu hum]
+15.8 +14.2 90 +16 +16 1017.6 990.7
05 16.08 СЗ 2 30 км 1/1 900 м
[Cu hum]
+17.5 +14.2 81 +18 +19 1017.6 990.9
04 16.08 СЗ 2 30 км 1/1 900 м
[Cu hum]
+16.3 +14.0 86 +16 +16 1017.6 990.8
06 16.08 штиль 0 30 км 3/3 900 м
[Cu hum]
+18.9 +14.6 76 +20 +23 1017.6 991.0 +15.1 0
07 16.08 С 1 н/о н/о +21.6 +15.4 68 +25 +25 комфорт 1017.3 991.0
08 16.08 С 3 н/о н/о +23.3 +15.6 62 +28 +28 душно 1017.4 991.2
09 16.08 С 3 30 км 4/4 900 м
[Cu med, cong]
+22.7 +15.5 64 +27 +33 душно 1017.5 991.3
11 16.08 СВ 4
{7}
30 км 8/8 1200 м
[Cu Sc]
+25.0 +14.8 53 +28 +30 жарко 1017.1 991.1
10 16.08 С 3 н/о н/о +23.5 +15.6 61 +27 +27 душно 1017.5 991.3
12 16.08 СВ 3 30 км 6/6 1300 м
[Cu Sc]
+25.6 +14.7 51 +28 +33 жарко 1016.6 990.6
13 16.08 В 4 30 км 5/4 1380 м
[Cu med, cong Ci sp]
+26.2 +14.3 48 +29 +33 жарко 1016.2 990.3
14 16.08 СВ 3 н/о н/о +25.6 +14.7 51 +28 +28 жарко 1015.8 989.9
15 16.08 СВ 2 30 км 6/6 1300 м
[Sc diur, vesp Ci sp]
+25.8 +14.9 51 +29 +30 душно 1015.6 989.7
17 16.08 СВ 3
{7}
н/о н/о +25.7 +14.5 50 +28 +28 жарко 1015.5 989.6
16 16.08 СВ 4
{7}
н/о н/о +26.2 +14.3 48 +29 +29 жарко 1015.5 989.6
18 16.08 С 1 30 км 1/1 1500 м
[Sc diur, vesp]
+23.6 +14.6 57 +26 +26 жарко 1016.0 989.9 +27.1
19 16.08 С 1 н/о н/о +21.3 +14.9 67 +24 +24 комфорт 1016.7 990.4
20 16.08 С 1 н/о н/о +21.4 +15.0 67 +25 +25 комфорт 1016.7 990.4
21 16.08 С 2 н/о н/о +21.3 +14.9 67 +24 +24 комфорт 1016.6 990.3
23 16.08 С 2 н/о н/о +20.7 +14.8 69 +24 +24 комфорт 1016.6 990.2
22 16.08 С 2 н/о н/о +20.8 +14.9 69 +24 +24 комфорт 1016.7 990.3
00 17.08 С 2 н/о н/о +18.6 +14.9 79 +20 +20 1016.5 989.9
01 17.08 СЗ 3 н/о н/о +18.0 +14.7 81 +18 +18 1016.5 989.9
02 17.08 С 3 н/о н/о +17.5 +14.6 83 +18 +18 1016.6 989.9
03 17.08 СЗ 3 25 км 1/1 600 м
[Cu hum]
+16.7 +14.5 87 +16 +16 1016.6 989.9
05 17.08 С 1 30 км ясно +17.1 +14.6 85 +18 +19 1016.9 990.2
04 17.08 СЗ 1 30 км 1/1 600 м
[Cu hum]
+15.8 +14.2 90 +16 +17 1016.9 990.1
06 17.08 С 1 30 км ясно +19.1 +15.0 77 +22 +25 комфорт 1016.9 990.4 +15.7
07 17.08 СЗ 1 н/о н/о +21.9 +14.8 64 +25 +25 комфорт 1016.8 990.5
08 17.08 СЗ 1 н/о н/о +24.4 +15.6 58 +27 +27 жарко 1016.7 990.6
09 17.08 З 1 30 км 1/1 1380 м
[Cu med, cong]
+26.1 +14.6 49 +29 +42 жарко 1016.4 990.5
11 17.08 СЗ 2 30 км 1/1 1500 м
[Cu med, cong]
+27.4 +13.4 42 +29 +42 жарко 1015.8 990.0
10 17.08 СЗ 1 н/о н/о +26.5 +15.2 50 +29 +29 жарко 1016.2 990.3
12 17.08 З 1 30 км 1/1 1500 м
[Cu med, cong]
+28.6 +13.7 40 +30 +44 жарко 1015.3 989.6
13 17.08 С 2 30 км 3/3 1500 м
[Cu med, cong]
+28.7 +13.4 39 +30 +38 жарко 1014.9 989.2
14 17.08 З 2 н/о н/о +29.5 +9.6 29 +29 +29 жарко 1014.6 989.0
15 17.08 З 2 30 км 4/4 2000 м
[Cb cap]
+29.4 +10.5 31 +30 +32 жарко 1014.3 988.7
17 17.08 СЗ 2 н/о н/о +28.3 +11.0 34 +29 +29 жарко 1014.1 988.4
16 17.08 З 2 н/о н/о +29.2 +10.8 32 +30 +30 жарко 1014.1 988.5
18 17.08 С 2 30 км 1/1 2000 м
[Sc diur, vesp]
+25.0 +14.5 52 +28 +28 жарко 1014.9 988.9 +30.1
19 17.08 С 3 н/о н/о +22.7 +15.1 62 +27 +27 душно 1015.8 989.6
20 17.08 штиль 0 н/о н/о +21.2 +14.8 67 +24 +24 комфорт 1016.1 989.8
21 17.08 С 1 н/о н/о +19.9 +14.7 72 +23 +23 комфорт 1016.5 990.0
23 17.08 СЗ 2 н/о н/о +18.2 +14.5 79 +19 +19 1016.8 990.2
22 17.08 З 1 н/о н/о +19.1 +14.6 75 +22 +22 комфорт 1016.7 990.2
00 18.08 СЗ 2 н/о н/о +18.4 +14.5 78 +19 +19 1016.8 990.2
01 18.08 С 2 н/о н/о +17.9 +14.4 80 +18 +18 1016.8 990.2
02 18.08 С 2 н/о н/о +17.3 +14.2 82 +18 +18 1017.1 990.4
03 18.08 С 3 30 км 1/1 400 м
[Cu hum]
+17.8 +14.1 79 +18 +18 1017.3 990.6
05 18.08 СЗ 1 30 км 1/1 400 м
[Cu hum]
+18.0 +14.5 80 +19 +20 1017.9 991.2
04 18.08 С 3 30 км 1/1 600 м
[Cu hum]
+17.8 +14.1 79 +18 +18 1017.7 991.0

 

Местоположение метеостанции Eger (Венгрия): широта 47.90 долгота 20.38 высота над уровнем моря 218 м.

В архиве по умолчанию представлена погода в Eger за последнюю неделю. Архивные данные за месяц целиком и за предыдущие месяцы, начиная с января 2011 года, Вы можете получить, выбрав интересующий диапазон дат из раскрывающегося списка и нажав кнопку "Ввод!".


*Определитесь, кто Вы:
робот инопланетянин человек

Внимание! Время в таблицах - всемирное. Для получения местного времени необходимо прибавить поправку, которая в Eger равна 1 ч.

Смотрите также архив погоды в соседних городах и на ближайших метеорологических станциях:

Погода в Kekesteto (Венгрия) (27 км)
Погода в Poroszlo (Венгрия) (34 км)
Погода в Miskolc (Венгрия) (37 км)
Погода в Josvafo (Венгрия) (65 км)
Погода в Lucenec (Словакия) (68 км)
Погода в Szecseny (Польша) (69 км)
Погода в Szolnok (Венгрия) (87 км)
Погода в Debrecen (Венгрия) (103 км)
Погода в Budapest (Венгрия) (104 км)
Погода в Kosice (Словакия) (106 км)

Пояснения к столбцам:

Ветер - указаны скорость ветра в м/с - средняя за 10 мин, порывы в срок и между сроками (в фигурных скобках) и направление, откуда дует ветер: С - северный, СВ - северо-восточный, В - восточный, ЮВ - юго-восточный, Ю - южный, ЮЗ - юго-западный, З - западный, СЗ - северо-западный.
Видимость - горизонтальная дальность видимости в метрах или километрах. При видимости от 1 до 10 км при отсутствии осадков обычно наблюдается дымка, при ухудшении видимости до 1 км и менее - туман. В сухую погоду видимость может ухудшаться дымом, пылью или мглою.
Явления - указаны атмосферные явления, наблюдавшиеся в срок или в последний час перед сроком; фигурными скобками обозначены явления, наблюдавшиеся между сроками (за 1-3 часа до срока); квадратными скобками обозначены град или гололедные отложения с указанием их диаметра в мм.
Облачность - указаны через наклонную черту общая и нижняя облачность в баллах и высота нижней границы облаков в метрах; квадратными скобками обозначены формы облаков: Ci - перистые, Cs - перисто-слоистые, Cc - перисто-кучевые, Ac - высококучевые, As - высокослоистые, Sc - слоисто-кучевые, Ns - слоисто-дождевые, Cu - кучевые, Cb - кучево-дождевые. Подробнее классификацию облаков см. в Атласе облаков (PDF).
T - Температура воздуха - температура, измеренная на высоте 2 м над землей.
Td - Температура точки росы - температура, при понижении до которой содержащийся в воздухе водяной пар достигнет насыщения.
f - Относительная влажность воздуха - влажноcть воздуха, измеренная на высоте 2 м над землей.
Te - Эффективная температура - температура, которую ощущает одетый по сезону человек в тени. Характеристика душности погоды. При расчете учитывается влияние влажности воздуха и скорости ветра на теплоощущения человека.
Tes - Эффективная температура на солнце - температура, которую ощущает человек, с поправкой на солнечный нагрев. Характеристика знойности погоды. Зависит от высоты солнца над горизонтом, облачности и скорости ветра. Ночью, в пасмурную погоду, а также при ветре 12 м/с и более поправка равна нулю.
P - Атмосферное давление - приведенное к уровню моря атмосферное давление.
Po - Атмосферное давление - измеренное на уровне метеостанции атмосферное давление.
Tmin - Минимальная температура - минимум температуры воздуха на высоте 2 м над землей.
Tmax - Максимальная температура - максимум температуры воздуха на высоте 2 м над землей.
R - Количество осадков - Количество выпавших осадков за период времени, мм. При наведении курсора мыши на число - период времени, за который выпало указанное количество осадков.
R24 - Количество осадков - Количество выпавших осадков за 24 часа, мм.
S - Снежный покров - Высота снежного покрова, см. При наведении курсора мыши на число - состояние снежного покрова и степень покрытия местности в баллах.